Regional Weather Roundup
Issued by NWS

Home | Current Version | Previous Version | Text Only | Print | Product List | Glossary On
Versions: 1 2 3 4 5 6 7 8 9 10 11 12 13 14 15 16 17 18 19 20 21 22 23 24 25 26 27 28 29 30 31 32 33 34 35 36 37 38 39 40 41 42 43 44 45 46 47 48 49 50
000
ASUS45 KBOU 310007
RWRCO

WEATHER ROUNDUP FOR COLORADO
NATIONAL WEATHER SERVICE DENVER/BOULDER CO
600 PM MDT MON MAR 30 2015

NOTE: "FAIR" INDICATES FEW OR NO CLOUDS BELOW 12000 FEET WITH NO
SIGNIFICANT WEATHER AND/OR OBSTRUCTIONS TO VISIBILITY.

COZ001>005-013-030-031-310100-
...NORTHWEST COLORADO...

CITY           SKY/WX    TMP DP  RH WIND       PRES   REMARKS
CRAIG          SUNNY     67  16  14 NW12      30.16S
HAYDEN         MOSUNNY   64  12  13 W20G25    30.17S
MEEKER         SUNNY     68  11  11 W13       30.16F
MOUNT WERNER   NOT AVBL
STEAMBOAT SPGS MOSUNNY   60  15  17 W12       30.18S
WALDEN         MOSUNNY   55  12  18 W16       30.23S
$$

COZ006>008-011-310100-
...WEST CENTRAL VALLEYS...

CITY           SKY/WX    TMP DP  RH WIND       PRES   REMARKS
GRAND JUNCTION SUNNY     74  14  10 VRB6      30.06F
MONTROSE       MOSUNNY   73  12   9 NW9       30.13F
EAGLE          MOSUNNY   66  12  12 NW15G22   30.17S
RIFLE          MOSUNNY   73  13  10 N13G25    30.10S
DELTA          MOSUNNY   77  13   8 NW9G16    30.09S
NUCLA          MOSUNNY   72  14  11 NW12      30.16S
$$

COZ017>023-064>068-310100-
...SOUTHWEST COLORADO...

CITY           SKY/WX    TMP DP  RH WIND       PRES   REMARKS
DURANGO        CLOUDY    66  14  13 NW13      30.16R
CORTEZ         SUNNY     74  13   9 W12       30.14S
PAGOSA SPRINGS CLOUDY    62  11  14 SE8       30.22S
TELLURIDE      NOT AVBL
WOLF CREEK PAS PTSUNNY   37  16  41 S10G20    30.46S
$$

COZ009-010-012-014-032>034-037-058>063-310100-
...CENTRAL COLORADO...

CITY           SKY/WX    TMP DP  RH WIND       PRES   REMARKS
ASPEN          PTSUNNY   59  15  18 N10G26    30.21S
BUENA VISTA    MOSUNNY   60   6  11 W15       30.22R
COPPER MTN     MOSUNNY   45   0  15 W30G39    30.41R
BERTHOUD PASS  PTSUNNY   34  28  80 NW22G35   30.42S WCI  22
COTTONWOOD PAS MOSUNNY   54   0  11 N8        30.32R
GUNNISON       MOSUNNY   63  14  15 W18G24    30.25R
KREMMLING      SUNNY     61   0   8 NW14G20   30.22S
LEADVILLE      PTSUNNY   47  12  24 W10       30.31R
SALIDA         MOSUNNY   65   4   9 NW6       30.25S
SUNLIGHT       PTSUNNY   45  19  36 CALM      30.41S
WILKERSON PASS SUNNY     43   0  16 NW12G18   30.40S
$$

COZ069>075-310100-
...SAN LUIS VALLEY/SANGRE DE CRISTO MOUNTAINS...

CITY           SKY/WX    TMP DP  RH WIND       PRES   REMARKS
ALAMOSA        PTSUNNY   64   4   9 N13       30.18S
LA VETA PASS   PTSUNNY   46   9  21 W9G18     30.32S
SAGUACHE       MOSUNNY   61  10  13 N15       30.21S
$$

COZ035-036-038>040-310100-
...NORTHERN COLORADO FRONT RANGE...

CITY           SKY/WX    TMP DP  RH WIND       PRES   REMARKS
DENVER INTL AP MOSUNNY   69  20  15 NE10      30.07S
DMNS CITY PARK   N/A     72  11   9 N10G20    30.06S
AURORA         MOSUNNY   69  21  16 NE9       30.08S
FRONT RANGE AP MOSUNNY   72  21  15 NE5       30.08S
ERIE MUNI ARPT SUNNY     73  14  10 CALM      30.05S
BOULDER MUN AP SUNNY     72  12  10 W17G28    30.06S
CENTENNIAL     MOSUNNY   68  18  14 E8        30.08R
BROOMFIELD     MOSUNNY   72   9   8 NW17G25   30.08R
FORT COLLINS   SUNNY     72  19  14 W8        30.04S
LONGMONT       SUNNY     75  14   9 W8G17     30.06S
$$

COZ041-046-047-076>085-087-088-310100-
...PIKES PEAK/PALMER DIVIDE AND SOUTHERN FOOTHILLS...

CITY           SKY/WX    TMP DP  RH WIND       PRES   REMARKS
COLO. SPRINGS  PTSUNNY   69   5   8 N7        30.10S
A. F. ACADEMY  MOSUNNY   66  10  11 NE9       30.11R
ELLICOTT       MOSUNNY  N/A N/A N/A SW5       30.09S
FALCON         MOSUNNY   65   8  10 NE5       30.14S
FORT CARSON    MOSUNNY   72  10   9 SE10      30.06F
LIMON          SUNNY     69  15  12 N8        30.07F
MONUMENT HILL  MOSUNNY   59  12  15 N8        30.15S
TRINIDAD       MOSUNNY   73  10   9 VRB3      30.07F
$$

COZ042>045-048>051-090-091-310100-
...NORTHEAST COLORADO...

CITY           SKY/WX    TMP DP  RH WIND       PRES   REMARKS
GREELEY ARPT   SUNNY     72  19  14 E12       30.03R
AKRON          SUNNY     68  19  15 NE10      30.06S
BURLINGTON     SUNNY     73  13  10 N13       30.04S
WRAY           SUNNY     74  16  11 N12       30.03S
STERLING       SUNNY     70  25  18 NE8       30.03S
HOLYOKE        NOT AVBL
FORT MORGAN    SUNNY    N/A N/A N/A NE6       30.05S
$$

COZ086-089-092>099-310100-
...SOUTHEAST COLORADO...

CITY           SKY/WX    TMP DP  RH WIND       PRES   REMARKS
PUEBLO         MOSUNNY   74   8   8 E9        30.01S
LA JUNTA       SUNNY     77  15   9 NE7       30.01S
LAMAR          MOSUNNY   77  23  13 SE7       29.98S
SPRINGFIELD      N/A     69  17  13 N7        30.03S
$$


USA.gov is the U.S. government's official web portal to all federal, state and local government web resources and services.